Miscellaneous Local Product
Issued by NWS Hastings, NE

Home | Current Version | Previous Version | Text Only | Print | Product List | Glossary On
Versions: 1 2 3 4 5 6 7 8 9 10 11 12 13 14 15 16 17 18 19 20 21 22 23 24 25 26 27 28 29 30 31 32 33 34 35 36 37 38 39 40 41 42 43 44 45 46 47 48 49 50
000
AXUS43 KGID 220602
MISGRI

GID CWA HOURLY WEATHER ROUNDUP
NATIONAL WEATHER SERVICE HASTINGS NE
100 AM CDT WED OCT 22 2014

NOTE: "FAIR" INDICATES FEW OR NO CLOUDS BELOW 12,000 FEET WITH NO
SIGNIFICANT WEATHER AND/OR OBSTRUCTIONS TO VISIBILITY.

...SOUTH CENTRAL NEBRASKA...

CITY           SKY/WX    TMP DP  RH WIND       PRES   REMARKS
GRAND ISLAND   PTCLDY    60  49  66 S13       29.98R
HASTINGS       PTCLDY    60  50  69 S13       29.97S
KEARNEY        PTCLDY    59  54  82 SE9       29.97S
ORD            PTCLDY    56  48  74 CALM      29.94S
YORK           CLEAR     57  45  62 SE13      30.00S
AURORA         PTCLDY    59  45  59 SE12      29.99R HAZE
LEXINGTON      PTCLDY    63  56  80 SE9       29.94F
HOLDREGE       PTCLDY    61  55  80 S12       29.96S
HEBRON         CLEAR     59  49  69 SE13      30.01S

...NEBRASKA PANHANDLE...

CITY           SKY/WX    TMP DP  RH WIND       PRES   REMARKS
CHADRON        CLOUDY    67  43  41 W15       29.82R
ALLIANCE       MOCLDY    49  41  74 SE6       29.88S
SCOTTSBLUFF    LGT RAIN  62  46  55 W14       29.91R
SIDNEY         CLOUDY    56  42  59 SW7       29.92R

...WESTERN AND NORTH CENTRAL NEBRASKA...

CITY           SKY/WX    TMP DP  RH WIND       PRES   REMARKS
VALENTINE      CLEAR     63  55  75 S16G25    29.84S
AINSWORTH      PTCLDY    60  52  77 S15       29.88S
ONEILL         PTCLDY    60  44  55 SE15G22   29.93F
BROKEN BOW     PTCLDY    60  54  80 SE10      29.93S
IMPERIAL       CLEAR     60  46  59 SE9       29.91S
NORTH PLATTE   CLEAR     63  51  65 S13       29.91S
MCCOOK         CLEAR     63  51  65 S13G21    29.93F

...EASTERN NEBRASKA...

CITY           SKY/WX    TMP DP  RH WIND       PRES   REMARKS
NORFOLK        CLEAR     59  40  49 SE15      30.00S
SO SIOUX CITY  CLEAR     50  44  80 SE9       30.05F
TEKAMAH        CLOUDY    56  45  66 SE10      30.06S
COLUMBUS       CLEAR     59  39  47 SE12G21   30.02F
ALBION         CLEAR     55  41  57 SE7       29.99S
OMAHA EPPLEY   PTCLDY    57  44  62 SE17      30.07F
OFFUTT AFB     PTCLDY    55  49  80 E14       30.07S
MILLARD        CLOUDY    58  44  60 SE12      30.06S
LINCOLN        CLEAR     61  42  49 SE15      30.04F
NEBRASKA CITY  CLOUDY    58  40  51 SE14G22   30.08S
BEATRICE       CLEAR     59  44  56 SE9G17    30.04R
FALLS CITY     CLOUDY    56  44  64 SE8       30.08S

...NORTHERN KANSAS...

CITY           SKY/WX    TMP DP  RH WIND       PRES   REMARKS
GOODLAND       CLEAR     54  47  77 S12       29.96S
HILL CITY      PTCLDY    61  53  75 S6        29.97S
NORTON         CLEAR     61  48  63 S10       29.95
PHILLIPSBURG   CLEAR     66  55  68 S9        29.97R
SMITH CENTER   CLEAR     61  55  82 SE9       29.99R
BELOIT         FAIR      63  57  82 SE10      29.98S
HAYS           PTCLDY    63  52  67 S10       29.99R
RUSSELL        PTCLDY    62  55  77 S9        29.98R
CONCORDIA      CLEAR     62  56  80 S15       30.00F
SALINA         CLEAR     65  57  75 SE12      30.01F
TOPEKA         PTCLDY    57  47  69 E7        30.09S



USA.gov is the U.S. government's official web portal to all federal, state and local government web resources and services.